Location: Brede
(50.9167°N, 0.6000°E)
Time: 19:07:37
(UTC+00:00)

Vanguard 1 Rocket - Pass Details

Date: 01 December 2020
Orbit: 655 x 4221 km, 34.3° (Epoch: 17 January)

Event Time Altitude Azimuth Distance (km) Brightness Sun altitude
Exits shadow 23:52:36 19° 103° (ESE) 5,994 11.4 -61.1°
Drops below altitude 10° 23:57:00 10° 94° (E) 6,424 11.6 -61.0°
Sets 00:01:51 0° 86° (E) 7,030 12.0 -60.9°
